Location: ??
(34.9170°N, 135.5016°E)
Time: 10:53:57
(UTC+00:00)

Transit 2A Rocket - All Passes

Search period start: 01 March 2021 00:00
Search period end: 11 March 2021 00:00
Orbit: 594 x 909 km, 66.7° (Epoch: 28 February)

Date Brightness Start Highest point End Pass type
(mag) Time Alt. Az. Time Alt. Az. Time Alt. Az.
01 Mar - 02:54:24 10° N 02:58:09 28° ENE 03:01:58 10° ESE daylight
01 Mar - 04:37:07 10° WNW 04:40:29 22° WSW 04:43:57 10° SSW daylight
01 Mar - 17:24:57 10° S 17:29:59 49° ESE 17:34:37 10° NE visible
01 Mar - 19:09:15 10° W 19:12:40 18° NW 19:15:56 10° N visible
02 Mar - 02:12:46 10° NNE 02:15:20 15° NE 02:17:57 10° E daylight
02 Mar - 03:53:54 10° NW 03:58:02 44° WSW 04:02:19 10° S daylight
02 Mar - 16:43:13 10° SSE 16:47:29 26° ESE 16:51:29 10° NE night (unlit)
02 Mar - 18:25:22 10° WSW 18:29:54 31° WNW 18:34:07 10° N visible
03 Mar - 03:11:10 10° NNW 03:15:30 87° ENE 03:20:00 10° SSE daylight
03 Mar - 16:02:36 10° SE 16:05:05 14° ESE 16:07:29 10° ENE night (unlit)
03 Mar - 17:42:08 10° SW 17:47:14 58° WNW 17:51:54 10° NNE visible
04 Mar - 02:28:46 10° NNW 02:32:53 42° ENE 02:37:08 10° SE daylight
04 Mar - 04:12:42 10° WNW 04:15:01 14° WSW 04:17:25 10° SW daylight
04 Mar - 16:59:27 10° SSW 17:04:39 75° ESE 17:09:23 10° NNE night (unlit)
04 Mar - 18:45:32 10° WNW 18:47:33 12° NW 18:49:32 10° NNW visible
05 Mar - 01:46:44 10° N 01:50:10 22° NE 01:53:41 10° ESE daylight
05 Mar - 03:28:53 10° NW 03:32:37 28° WSW 03:36:30 10° S daylight
05 Mar - 16:17:19 10° S 16:22:06 38° ESE 16:26:33 10° NE night (unlit)
05 Mar - 18:00:50 10° WSW 18:04:42 22° NW 18:08:20 10° N visible
06 Mar - 01:05:27 10° NNE 01:07:19 12° NE 01:09:11 10° ENE daylight
06 Mar - 02:45:53 10° NW 02:50:09 58° WSW 02:54:36 10° SSE daylight
06 Mar - 15:35:53 10° SSE 15:39:39 21° ESE 15:43:12 10° ENE night (unlit)
06 Mar - 17:17:13 10° SW 17:21:57 38° WNW 17:26:21 10° N night (unlit)
07 Mar - 02:03:16 10° NNW 02:07:35 68° ENE 02:12:05 10° SE daylight
07 Mar - 14:56:36 10° ESE 14:57:16 10° ESE 14:57:54 10° E night (unlit)
07 Mar - 16:34:11 10° SSW 16:39:20 73° WNW 16:44:02 10° NNE night (unlit)
08 Mar - 01:20:59 10° N 01:24:56 34° ENE 01:29:01 10° SE daylight
08 Mar - 03:04:10 10° WNW 03:07:11 18° WSW 03:10:19 10° SSW daylight
08 Mar - 15:51:41 10° SSW 15:56:45 59° ESE 16:01:24 10° NE night (unlit)
08 Mar - 17:36:44 10° W 17:39:33 15° NW 17:42:14 10° NNW night (unlit)
09 Mar - 00:39:08 10° N 00:42:10 18° NE 00:45:17 10° E daylight
09 Mar - 02:20:45 10° NW 02:24:45 36° WSW 02:28:57 10° S daylight
09 Mar - 15:09:46 10° S 15:14:15 30° ESE 15:18:25 10° NE night (unlit)
09 Mar - 16:52:32 10° WSW 16:56:43 26° WNW 17:00:39 10° N night (unlit)
10 Mar - 01:37:54 10° NNW 01:42:15 76° WSW 01:46:48 10° SSE daylight
10 Mar - 14:28:43 10° SE 14:31:49 16° ESE 14:34:45 10° ENE night (unlit)
10 Mar - 16:09:08 10° SW 16:14:02 48° WNW 16:18:32 10° NNE night (unlit)
